TKSAT-1 (TUPAC KATARI)

Last updated on Thu Oct 30 2025 00:02:49 GMT+0000 (Coordinated Universal Time)

1 39481U 13075A 25302.45383095 -.00000185 00000+0 00000+0 0 9993 2 39481 0.0563 69.2412 0002431 154.7114 250.2978 1.00271062 43287
UTC large
Height (km)
Speed (km/s)
/
Latitude / Longitude
Inclination (degrees)
Orbital Period (minutes)
Azimuth
Elevation
Range (km)
Doppler Factor

Next 0 passes for location: London (51.5072 / 0.1276)

Sorry there are no passes over London.